Time,TemperatureF,DewpointF,PressureIn,WindDirection,WindDirectionDegrees,WindSpeedMPH,WindSpeedGustMPH,Humidity,HourlyPrecipIn,Conditions,Clouds,dailyrainin,SolarRadiationWatts/m^2,SoftwareType,DateUTC
2013-02-18 00:01:00,47.0,13.0,-100.00,SW,219,1.0,6.0,25,0.00,,,0.00,0.000000,,2013-02-18 08:01:00,
2013-02-18 00:11:00,47.0,13.0,-100.00,SW,219,1.0,6.0,25,0.00,,,0.00,0.000000,,2013-02-18 08:11:00,
2013-02-18 00:21:00,47.0,13.0,-100.00,SW,219,1.0,6.0,25,0.00,,,0.00,0.000000,,2013-02-18 08:21:00,
2013-02-18 00:52:00,46.0,15.0,-100.00,SSW,192,6.0,11.0,28,0.00,,,0.00,0.000000,,2013-02-18 08:52:00,
2013-02-18 01:02:00,46.0,15.0,-100.00,SSW,192,6.0,11.0,28,0.00,,,0.00,0.000000,,2013-02-18 09:02:00,
2013-02-18 01:11:00,46.0,15.0,-100.00,SSW,192,6.0,11.0,28,0.00,,,0.00,0.000000,,2013-02-18 09:11:00,
2013-02-18 01:22:00,46.0,15.0,-100.00,SSW,192,6.0,11.0,28,0.00,,,0.00,0.000000,,2013-02-18 09:22:00,
2013-02-18 01:52:00,45.0,17.0,-100.00,SSW,201,8.0,13.0,32,0.00,,,0.00,0.000000,,2013-02-18 09:52:00,
2013-02-18 02:01:00,45.0,17.0,-100.00,SSW,201,8.0,13.0,32,0.00,,,0.00,0.000000,,2013-02-18 10:01:00,
2013-02-18 02:11:00,45.0,17.0,-100.00,SSW,201,8.0,13.0,32,0.00,,,0.00,0.000000,,2013-02-18 10:11:00,
2013-02-18 02:21:00,45.0,17.0,-100.00,SSW,201,8.0,13.0,32,0.00,,,0.00,0.000000,,2013-02-18 10:21:00,
2013-02-18 02:52:00,47.0,13.0,-100.00,North,8,0.0,12.0,25,0.00,,,0.00,0.000000,,2013-02-18 10:52:00,
2013-02-18 03:11:00,47.0,13.0,-100.00,North,8,0.0,12.0,25,0.00,,,0.00,0.000000,,2013-02-18 11:11:00,
2013-02-18 03:21:00,47.0,13.0,-100.00,North,8,0.0,12.0,25,0.00,,,0.00,0.000000,,2013-02-18 11:21:00,
2013-02-18 03:53:00,46.0,15.0,-100.00,NNE,16,3.0,6.0,28,0.00,,,0.00,0.000000,,2013-02-18 11:53:00,
2013-02-18 04:02:00,46.0,15.0,-100.00,NNE,16,3.0,6.0,28,0.00,,,0.00,0.000000,,2013-02-18 12:02:00,
2013-02-18 04:11:00,46.0,15.0,-100.00,NNE,16,3.0,6.0,28,0.00,,,0.00,0.000000,,2013-02-18 12:11:00,
2013-02-18 04:21:00,46.0,15.0,-100.00,NNE,16,3.0,6.0,28,0.00,,,0.00,0.000000,,2013-02-18 12:21:00,
2013-02-18 04:53:00,45.0,15.0,-100.00,ENE,71,0.0,6.0,29,0.00,,,0.00,0.000000,,2013-02-18 12:53:00,
2013-02-18 05:02:00,45.0,15.0,-100.00,ENE,71,0.0,6.0,29,0.00,,,0.00,0.000000,,2013-02-18 13:02:00,
2013-02-18 05:11:00,45.0,15.0,-100.00,ENE,71,0.0,6.0,29,0.00,,,0.00,0.000000,,2013-02-18 13:11:00,
2013-02-18 05:22:00,45.0,15.0,-100.00,ENE,71,0.0,6.0,29,0.00,,,0.00,0.000000,,2013-02-18 13:22:00,
2013-02-18 05:53:00,44.0,15.0,-100.00,NE,48,1.0,8.0,30,0.00,,,0.00,0.000000,,2013-02-18 13:53:00,
2013-02-18 06:02:00,44.0,15.0,-100.00,NE,48,1.0,8.0,30,0.00,,,0.00,0.000000,,2013-02-18 14:02:00,
2013-02-18 06:11:00,44.0,15.0,-100.00,NE,48,1.0,8.0,30,0.00,,,0.00,0.000000,,2013-02-18 14:11:00,
2013-02-18 06:21:00,44.0,15.0,-100.00,NE,48,1.0,8.0,30,0.00,,,0.00,0.000000,,2013-02-18 14:21:00,
2013-02-18 06:53:00,46.0,16.0,-100.00,ESE,118,9.0,11.0,29,0.00,,,0.00,0.000000,,2013-02-18 14:53:00,
2013-02-18 07:02:00,46.0,16.0,-100.00,ESE,118,9.0,11.0,29,0.00,,,0.00,0.000000,,2013-02-18 15:02:00,
2013-02-18 07:11:00,46.0,16.0,-100.00,ESE,118,9.0,11.0,29,0.00,,,0.00,0.000000,,2013-02-18 15:11:00,
2013-02-18 07:21:00,46.0,16.0,-100.00,ESE,118,9.0,11.0,29,0.00,,,0.00,0.000000,,2013-02-18 15:21:00,
2013-02-18 07:52:00,48.0,17.0,-100.00,SE,132,7.0,11.0,29,0.00,,,0.00,51.000000,,2013-02-18 15:52:00,
2013-02-18 08:02:00,48.0,17.0,-100.00,SE,132,7.0,11.0,29,0.00,,,0.00,51.000000,,2013-02-18 16:02:00,
2013-02-18 08:11:00,48.0,17.0,-100.00,SE,132,7.0,11.0,29,0.00,,,0.00,51.000000,,2013-02-18 16:11:00,
2013-02-18 08:21:00,48.0,17.0,-100.00,SE,132,7.0,11.0,29,0.00,,,0.00,51.000000,,2013-02-18 16:21:00,
2013-02-18 08:53:00,50.0,16.0,-100.00,SE,142,5.0,10.0,26,0.00,,,0.00,275.000000,,2013-02-18 16:53:00,
2013-02-18 09:03:00,50.0,16.0,-100.00,SE,142,5.0,10.0,26,0.00,,,0.00,275.000000,,2013-02-18 17:03:00,
2013-02-18 09:11:00,50.0,16.0,-100.00,SE,142,5.0,10.0,26,0.00,,,0.00,275.000000,,2013-02-18 17:11:00,
2013-02-18 09:21:00,50.0,16.0,-100.00,SE,142,5.0,10.0,26,0.00,,,0.00,275.000000,,2013-02-18 17:21:00,
2013-02-18 09:53:00,50.0,19.0,-100.00,SW,218,1.0,8.0,29,0.00,,,0.00,510.000000,,2013-02-18 17:53:00,
2013-02-18 10:02:00,50.0,19.0,-100.00,SW,218,1.0,8.0,29,0.00,,,0.00,510.000000,,2013-02-18 18:02:00,
2013-02-18 10:11:00,50.0,19.0,-100.00,SW,218,1.0,8.0,29,0.00,,,0.00,510.000000,,2013-02-18 18:11:00,
2013-02-18 10:22:00,50.0,19.0,-100.00,SW,218,1.0,8.0,29,0.00,,,0.00,510.000000,,2013-02-18 18:22:00,
2013-02-18 10:53:00,55.0,15.0,-100.00,SE,129,5.0,10.0,20,0.00,,,0.00,711.000000,,2013-02-18 18:53:00,
2013-02-18 11:02:00,55.0,15.0,-100.00,SE,129,5.0,10.0,20,0.00,,,0.00,711.000000,,2013-02-18 19:02:00,
2013-02-18 11:12:00,55.0,15.0,-100.00,SE,129,5.0,10.0,20,0.00,,,0.00,711.000000,,2013-02-18 19:12:00,
2013-02-18 11:21:00,55.0,15.0,-100.00,SE,129,5.0,10.0,20,0.00,,,0.00,711.000000,,2013-02-18 19:21:00,
2013-02-18 11:53:00,56.0,10.0,-100.00,SE,141,9.0,16.0,16,0.00,,,0.00,848.000000,,2013-02-18 19:53:00,
2013-02-18 12:02:00,56.0,10.0,-100.00,SE,141,9.0,16.0,16,0.00,,,0.00,848.000000,,2013-02-18 20:02:00,
2013-02-18 12:53:00,58.0,12.0,-100.00,South,175,7.0,15.0,16,0.00,,,0.00,906.000000,,2013-02-18 20:53:00,
2013-02-18 13:02:00,58.0,12.0,-100.00,South,175,7.0,15.0,16,0.00,,,0.00,906.000000,,2013-02-18 21:02:00,
2013-02-18 13:11:00,58.0,12.0,-100.00,South,175,7.0,15.0,16,0.00,,,0.00,906.000000,,2013-02-18 21:11:00,
2013-02-18 13:21:00,58.0,12.0,-100.00,South,175,7.0,15.0,16,0.00,,,0.00,906.000000,,2013-02-18 21:21:00,
2013-02-18 13:53:00,57.0,11.0,-100.00,South,179,11.0,18.0,16,0.00,,,0.00,881.000000,,2013-02-18 21:53:00,
2013-02-18 14:12:00,57.0,11.0,-100.00,South,179,11.0,18.0,16,0.00,,,0.00,881.000000,,2013-02-18 22:12:00,
2013-02-18 14:22:00,57.0,11.0,-100.00,South,179,11.0,18.0,16,0.00,,,0.00,881.000000,,2013-02-18 22:22:00,
2013-02-18 14:53:00,58.0,16.0,-100.00,South,180,17.0,26.0,19,0.00,,,0.00,776.000000,,2013-02-18 22:53:00,
2013-02-18 15:02:00,58.0,16.0,-100.00,South,180,17.0,26.0,19,0.00,,,0.00,776.000000,,2013-02-18 23:02:00,
2013-02-18 15:11:00,58.0,16.0,-100.00,South,180,17.0,26.0,19,0.00,,,0.00,776.000000,,2013-02-18 23:11:00,
2013-02-18 15:22:00,58.0,16.0,-100.00,South,180,17.0,26.0,19,0.00,,,0.00,776.000000,,2013-02-18 23:22:00,
2013-02-18 15:53:00,55.0,8.0,-100.00,South,187,21.0,30.0,15,0.00,,,0.00,606.000000,,2013-02-18 23:53:00,
2013-02-18 16:02:00,55.0,8.0,-100.00,South,187,21.0,30.0,15,0.00,,,0.00,606.000000,,2013-02-19 00:02:00,
2013-02-18 16:54:00,55.0,11.0,-100.00,South,181,21.0,30.0,17,0.00,,,0.00,382.000000,,2013-02-19 00:54:00,
2013-02-18 17:03:00,55.0,11.0,-100.00,South,181,21.0,30.0,17,0.00,,,0.00,382.000000,,2013-02-19 01:03:00,
2013-02-18 17:13:00,55.0,11.0,-100.00,South,181,21.0,30.0,17,0.00,,,0.00,382.000000,,2013-02-19 01:13:00,
2013-02-18 17:22:00,55.0,11.0,-100.00,South,181,21.0,30.0,17,0.00,,,0.00,382.000000,,2013-02-19 01:22:00,
2013-02-18 17:55:00,51.0,10.0,-100.00,South,187,20.0,30.0,19,0.00,,,0.00,79.000000,,2013-02-19 01:55:00,
2013-02-18 18:02:00,51.0,10.0,-100.00,South,187,20.0,30.0,19,0.00,,,0.00,79.000000,,2013-02-19 02:02:00,
2013-02-18 18:12:00,51.0,10.0,-100.00,South,187,20.0,30.0,19,0.00,,,0.00,79.000000,,2013-02-19 02:12:00,
2013-02-18 18:22:00,51.0,10.0,-100.00,South,187,20.0,30.0,19,0.00,,,0.00,79.000000,,2013-02-19 02:22:00,
2013-02-18 18:54:00,50.0,4.0,-100.00,SSW,192,21.0,31.0,15,0.00,,,0.00,2.000000,,2013-02-19 02:54:00,
2013-02-18 19:04:00,50.0,4.0,-100.00,SSW,192,21.0,31.0,15,0.00,,,0.00,2.000000,,2013-02-19 03:04:00,
2013-02-18 19:54:00,46.0,7.0,-100.00,SSW,194,22.0,34.0,20,0.00,,,0.00,0.000000,,2013-02-19 03:54:00,
2013-02-18 20:02:00,46.0,7.0,-100.00,SSW,194,22.0,34.0,20,0.00,,,0.00,0.000000,,2013-02-19 04:02:00,
2013-02-18 20:13:00,46.0,7.0,-100.00,SSW,194,22.0,34.0,20,0.00,,,0.00,0.000000,,2013-02-19 04:13:00,
2013-02-18 20:22:00,46.0,7.0,-100.00,SSW,194,22.0,34.0,20,0.00,,,0.00,0.000000,,2013-02-19 04:22:00,
2013-02-18 20:54:00,45.0,12.0,-100.00,SSW,193,20.0,32.0,26,0.00,,,0.00,0.000000,,2013-02-19 04:54:00,
2013-02-18 21:02:00,45.0,12.0,-100.00,SSW,193,20.0,32.0,26,0.00,,,0.00,0.000000,,2013-02-19 05:02:00,
2013-02-18 21:12:00,45.0,12.0,-100.00,SSW,193,20.0,32.0,26,0.00,,,0.00,0.000000,,2013-02-19 05:12:00,
2013-02-18 21:22:00,45.0,12.0,-100.00,SSW,193,20.0,32.0,26,0.00,,,0.00,0.000000,,2013-02-19 05:22:00,
2013-02-18 21:52:00,44.0,17.0,-100.00,SSW,195,20.0,30.0,34,0.00,,,0.00,0.000000,,2013-02-19 05:52:00,
2013-02-18 22:02:00,44.0,17.0,-100.00,SSW,195,20.0,30.0,34,0.00,,,0.00,0.000000,,2013-02-19 06:02:00,
2013-02-18 22:11:00,44.0,17.0,-100.00,SSW,195,20.0,30.0,34,0.00,,,0.00,0.000000,,2013-02-19 06:11:00,
2013-02-18 22:21:00,44.0,17.0,-100.00,SSW,195,20.0,30.0,34,0.00,,,0.00,0.000000,,2013-02-19 06:21:00,
2013-02-18 22:52:00,45.0,22.0,-100.00,SSW,205,18.0,29.0,39,0.00,,,0.00,0.000000,,2013-02-19 06:52:00,
2013-02-18 23:01:00,45.0,22.0,-100.00,SSW,205,18.0,29.0,39,0.00,,,0.00,0.000000,,2013-02-19 07:01:00,
2013-02-18 23:11:00,45.0,22.0,-100.00,SSW,205,18.0,29.0,39,0.00,,,0.00,0.000000,,2013-02-19 07:11:00,
2013-02-18 23:21:00,45.0,22.0,-100.00,SSW,205,18.0,29.0,39,0.00,,,0.00,0.000000,,2013-02-19 07:21:00,
2013-02-18 23:52:00,42.0,23.0,-100.00,SSW,212,18.0,27.0,46,0.00,,,0.00,0.000000,,2013-02-19 07:52:00,